Regional Weather Roundup
Issued by NWS

Home | Current Version | Previous Version | Graphics & Text | Print | Product List | Glossary On
Versions: 1 2 3 4 5 6 7 8 9 10 11 12 13 14 15 16 17 18 19 20 21 22 23 24 25 26 27 28 29 30 31 32 33 34 35 36 37 38 39 40 41 42 43 44 45 46 47 48 49 50
000
ASUS43 KFSD 220602
RWRSD

WEATHER ROUNDUP FOR SOUTH DAKOTA
NATIONAL WEATHER SERVICE SIOUX FALLS SD
100 AM CDT MON MAY 22 2017

NOTE: "FAIR" INDICATES FEW OR NO CLOUDS BELOW 12,000 FEET WITH NO
SIGNIFICANT WEATHER AND/OR OBSTRUCTIONS TO VISIBILITY.


SDZ001>005-009-010-012>017-220700-
NORTHWEST AND NORTH CENTRAL SOUTH DAKOTA

CITY           SKY/WX    TMP DP  RH WIND       PRES   REMARKS
BUFFALO          N/A     47  42  83 NW9       29.97F
FAITH            N/A     47  40  76 W14       30.00S
MOBRIDGE       CLOUDY    50  41  71 NW8       29.91F
$$

SDZ012>016-024>037-041>051-057-063-072>074-220700-
SOUTHWEST AND SOUTH CENTRAL SOUTH DAKOTA

CITY           SKY/WX    TMP DP  RH WIND       PRES   REMARKS
RAPID CTY ARPT CLEAR     45  38  76 W10       30.07F
PIERRE         CLEAR     51  42  71 W9        29.97S
CUSTER         CLEAR     38  30  73 W5        30.15F
ELLSWORTH AFB  CLEAR     44  40  86 W10       30.06F
PHILIP         CLEAR     44  42  93 W9        30.02F
PINE RIDGE     CLEAR     46  43  89 NW3       30.12F
SPEARFISH      FAIR      48  37  66 W9        30.10F
WINNER         FAIR      51  44  77 W12       30.01F
$$

SDZ004>011-016>023-039-040-220700-
NORTHEAST SOUTH DAKOTA

CITY           SKY/WX    TMP DP  RH WIND       PRES   REMARKS
ABERDEEN       PTCLDY    44  39  82 N3        29.93F
WATERTOWN      CLEAR     41  38  89 S3        29.92F
BROOKINGS      CLOUDY    46  42  86 NE5       29.94F
SISSETON         N/A     46  40  79 W7        29.91S
$$

SDZ017-020-022-023-036>040-048>070-220700-
SOUTHEAST SOUTH DAKOTA

CITY           SKY/WX    TMP DP  RH WIND       PRES   REMARKS
SIOUX FALLS    CLEAR     53  43  68 SW7       29.94F
HURON          PTCLDY    47  46  97 W5        29.92S
MITCHELL       CLEAR     56  43  61 W10       29.94F
YANKTON        CLOUDY    55  42  61 S8        29.98F
$$

ABBREVIATIONS USED IN REMARKS
   TC - TEMPERATURE IN CELSIUS
  WCI - WIND CHILL INDEX
   HX - HEAT INDEX
  VSB - VISIBILITY





USA.gov is the U.S. government's official web portal to all federal, state and local government web resources and services.